Location: ??????
(38.3184°N, 23.6932°E)
Time: 02:26:18
(UTC+00:00)

NOSS 3-1 (C) - Pass Details

Date: 16 October 2021
Orbit: 717 x 1491 km, 63.4° (Epoch: 25 November)

Event Time Altitude Azimuth Distance (km) Brightness Sun altitude
Rises 16:53:07 0° 175° (S) 3,120 6.1 -14.0°
Reaches altitude 10° 16:55:48 10° 161° (SSE) 2,239 5.2 -14.5°
Maximum altitude 16:59:44 23° 109° (ESE) 1,607 4.1 -15.2°
Enters shadow 17:00:06 23° 103° (ESE) 1,622 4.1 -15.3°
